AirNav  
 
 1038 users online  

IN46 Butler Field Airport
Rockville, Indiana, USA

GOING TO ROCKVILLE?


FAA INFORMATION EFFECTIVE 04 JANUARY 2018

Location

FAA Identifier: IN46
Lat/Long: 39-44-20.1450N / 087-13-10.0510W
39-44.335750N / 087-13.167517W
39.7389292 / -87.2194586
(estimated)
Elevation: 687 ft. / 209.4 m (surveyed)
Variation: 01W (1985)
From city: 2 miles S of ROCKVILLE, IN
Time zone: UTC -5 (UTC -4 during Daylight Saving Time)
Zip code: 47872

Airport Operations

Airport use: Private use. Permission required prior to landing
Activation date: 09/1969
Control tower: no
ARTCC: INDIANAPOLIS CENTER
FSS: TERRE HAUTE FLIGHT SERVICE STATION
Attendance: UNATNDD
Wind indicator: yes
Segmented circle: no

Airport Communications

WX ASOS at HUF (18 nm S): PHONE 812-877-7010
WX AWOS-3PT at CFJ (20 nm NE): 125.650 (765-362-2967)
WX AWOS-3 at GPC (20 nm E): 118.125 (765-653-1789)

Nearby radio navigation aids

VOR radial/distance  VOR name  Freq  Var
TTHr003/15.1TERRE HAUTE VORTAC115.3002E
DNVr153/36.7DANVILLE VORTAC111.0002E
VHPr262/39.5BRICKYARD VORTAC116.3001E

 
NDB name  Hdg/Dist  Freq  Var  ID
CRAWFORDSVILLE228/20.238804WCFJ -.-. ..-. .---
SULLIVAN018/39.032602WSIV ... .. ...-

Airport Services

Fuel available: 100LL
FUEL NOT FOR SALE TO PUBLIC.
Parking: hangars
Airframe service: NONE
Powerplant service: NONE
Bottled oxygen: NONE
Bulk oxygen: NONE

Runway Information

Runway 9/27

Dimensions: 2081 x 65 ft. / 634 x 20 m
Surface: turf
RUNWAY 9  RUNWAY 27
Traffic pattern: leftleft
Obstructions: trees, 87 ft. from runway, 12:1 slope to cleartrees, 500 ft. from runway, 20:1 slope to clear

Airport Ownership and Management from official FAA records

Ownership: Privately-owned
Owner: JACK BUTLER
251 W. HWY US 36
ROCKVILLE, IN 47872
Phone 812-569-6379
Manager: J.B. BUTLER
251 W. US 36
ROCKVILLE, IN 47872

Airport Operational Statistics

Aircraft based on the field: 7
Single engine airplanes: 7
    

Additional Remarks

FOR INFO CTC JACK UNDERWOOD, 765-569-6915, BUTLER PILOS ASSOC.

Instrument Procedures

There are no published instrument procedures at IN46.

Some nearby airports with instrument procedures:

3I3 - Sky King Airport (14 nm SW)
0I2 - Brazil Clay County Airport (17 nm S)
KHUF - Terre Haute Regional Airport (18 nm S)
KCFJ - Crawfordsville Municipal Airport (20 nm NE)
KGPC - Putnam County Regional Airport (20 nm E)
 
Loc | Ops | Rwys | IFR | FBO | Links
Com | Nav | Svcs | Stats | Notes


 
Area around IN46 (Butler Field Airport)
 
Road maps at: MapQuest Bing Google
 
Aerial photo
WARNING: Photo may not be current or correct
Aerial photo of IN46 (Butler Field Airport)
Photo taken 11-Jan-2010
looking east.

Do you have a better or more recent aerial photo of Butler Field Airport that you would like to share? If so, please send us your photo.

 
Sectional chart

 
Airport distance calculator
Flying to Butler Field Airport? Find the distance to fly.

From to IN46

Sunrise and sunset
Times for 20-Jan-2018
 Local
(UTC-5)
 Zulu
(UTC)
Morning civil twilight07:3812:38
Sunrise08:0713:07
Sunset17:5322:53
Evening civil twilight18:2223:22

Current date and time
Zulu (UTC)  20-Jan-2018 18:13:35
Local (UTC-5)  20-Jan-2018 13:13:35
 
METAR
KHUF 
18nm S 
201753Z 22009KT 10SM CLR 06/M02 A3006 RMK AO2 SLP182 T00611022 10061 21022 58004
KGPC 
20nm E 
201755Z AUTO 22005KT 7SM OVC023 05/M02 A3004 RMK AO2
KCFJ 
20nm NE 
201755Z AUTO 10SM OVC019 03/M01 RMK AO2 T00261010 10027 21018
KPRG 
21nm W 
201755Z AUTO 21010KT 10SM OVC022 05/01 A3005 RMK AO2 T00460008 10050 21007
KDNV 
33nm NW 
201755Z AUTO 21008KT 10SM OVC018 03/00 A2999 RMK AO2 T00311001 10032 21015
TAF
KHUF 
18nm S 
201725Z 2018/2118 21008KT P6SM SCT025 BKN070 FM201900 20008KT P6SM OVC015 FM210000 19007KT P6SM VCSH OVC010 FM210500 19007KT P6SM VCSH OVC003 FM210700 19007KT 1 1/2SM BR VCSH OVC003 WS020/23035KT FM211500 18008KT 1 1/2SM BR OVC008 WS020/22040KT
NOTAMs
Click for the latest NOTAMs
NOTAMs are issued by the DoD/FAA and will open in a separate window not controlled by AirNav.

 

 
 

Would you like to see your business listed on this page?

 If your business provides an interesting product or service to pilots, flight crews, aircraft, or users of the Butler Field Airport, you should consider listing it here.  To start the listing process, click on the button below
 
Add a business
 

Other Pages about Butler Field Airport

Update a link
 
Copyright © AirNav, LLC. All rights reserved. Privacy Policy  Contact